Flag for Algeria Weather past 2 weeks in Constantine, Algeria

Now
93 °F

Sunny.


Feels Like: 89 °F
Forecast: 63 / 99 °F
Wind: 7 mph from North

Location: Constantine Airport

Current Time: Jun 30, 2015 at 3:48:25 PM

Latest Report: Jun 30, 2015 at 2:30 PM


Visibility: 10 mi

Pressure: 30.12 "Hg

Humidity: 16%

Dew point: 41 °F

Location of ConstantineLocation

Historic Weather in Constantine — Graph

°F

Constantine temperature yesterday

Maximum temperature yesterday: 91 °F (at 1:00 PM)
Minimum temperature yesterday: 63 °F (at 5:00 AM)
Average temperature yesterday: 79 °F

Past Weeks' High & Low Weather Summary

 TemperatureHumidityPressure
High99 °F (Jun 23, 2:00 PM)94% (Jun 16, 8:00 AM)30.24 "Hg (Jun 16, 8:00 AM)
Low52 °F (Jun 18, 4:00 AM)14% (Jun 23, 1:30 PM)29.95 "Hg (Jun 23, 2:00 PM)
Average72 °F51%30.14 "Hg
* Reported Jun 15 2:00 PM — Jun 30 2:30 PM, Constantine, Weather by CustomWeather, © 2015

Note: Actual official high and low records may vary slightly from our data, if they occured in-between our weather recording intervals... More about our weather records

Advertising

Constantine weather history for previous 24 hours

 ConditionsComfort  
Time TempWeatherWind HumidityBarometerVisibility
2:30 PM
Tue, Jun 30
93 °FSunny.7 mph16%30.12 "Hg10 mi
2:00 PM93 °FSunny.7 mph16%30.12 "Hg10 mi
1:30 PM93 °FSunny.7 mph17%30.12 "Hg10 mi
1:00 PM93 °FSunny.8 mph17%30.12 "Hg10 mi
12:30 PM91 °FSunny.10 mph18%30.15 "Hg10 mi
11:30 AM90 °FSunny.5 mph20%30.15 "Hg10 mi
11:00 AM88 °FSunny.5 mph18%30.15 "Hg10 mi
10:30 AM88 °FSunny.6 mph21%30.15 "Hg10 mi
10:00 AM86 °FSunny.3 mph24%30.15 "Hg10 mi
9:30 AM84 °FSunny.1 mph27%30.15 "Hg10 mi
9:00 AM79 °FSunny.1 mph34%30.15 "Hg10 mi
8:30 AM77 °FPassing clouds.3 mph36%30.18 "HgN/A
8:00 AM72 °FSunny.No wind41%30.15 "Hg10 mi
7:30 AM72 °FSunny.No wind44%30.15 "Hg10 mi
7:00 AM66 °FSunny.2 mph46%30.15 "Hg10 mi
6:00 AM61 °FSunny.No wind55%30.15 "Hg10 mi
5:30 AM59 °FSunny.No wind55%30.15 "Hg10 mi
4:30 AM59 °FClear.No wind55%30.15 "Hg10 mi
4:00 AM59 °FClear.No wind55%30.15 "Hg10 mi
3:30 AM63 °FClear.No wind52%30.15 "Hg10 mi
3:00 AM64 °FClear.No wind49%30.15 "Hg10 mi
2:30 AM64 °FClear.No wind52%30.18 "Hg10 mi
2:00 AM64 °FClear.No wind52%30.18 "Hg10 mi
1:30 AM64 °FClear.No wind52%30.18 "Hg10 mi
1:00 AM66 °FClear.No wind49%30.18 "Hg10 mi
12:30 AM70 °FClear.No wind46%30.21 "Hg10 mi
12:00 AM68 °FClear.2 mph49%30.21 "Hg10 mi
11:30 PM
Mon, Jun 29
68 °FClear.2 mph49%30.21 "Hg10 mi
11:00 PM72 °FClear.No wind47%30.21 "Hg10 mi
10:00 PM72 °FClear.No wind47%30.21 "Hg10 mi
9:30 PM73 °FClear.No wind41%30.21 "Hg10 mi
9:00 PM73 °FClear.No wind41%30.21 "Hg10 mi
8:30 PM73 °FClear.3 mph41%30.18 "Hg10 mi
8:00 PM77 °FClear.9 mph39%30.18 "Hg10 mi
7:30 PM81 °FSunny.8 mph34%30.18 "Hg10 mi
7:00 PM82 °FSunny.10 mph30%30.18 "Hg10 mi
6:30 PM84 °FPassing clouds.10 mph33%30.15 "HgN/A
6:00 PM86 °FPassing clouds.12 mph31%30.15 "HgN/A
5:30 PM88 °FSunny.14 mph27%30.15 "Hg10 mi
5:00 PM88 °FSunny.14 mph27%30.15 "Hg10 mi
4:30 PM91 °FSunny.12 mph23%30.15 "Hg10 mi
4:00 PM91 °FSunny.14 mph20%30.15 "Hg10 mi
3:30 PM91 °FSunny.9 mph20%30.15 "Hg10 mi
3:00 PM91 °FSunny.14 mph18%30.15 "Hg10 mi
Weather by CustomWeather, © 2015

See weather overviewHow to use our weather pages